www.pogodaiklimat.ru

Погода и климат >> Архив погоды >> Китай >> Beijing


АРХИВ ПОГОДЫ в Beijing

Время (UTC), дата Ветер
(напр.,м/с)
 
Видим.   Явления Облачность Т
(С)
Тd
(С)
f
(%)
Тe
(С)
Тes
(С)
Комфортность P
(гПа)
Po
(гПа)
Тmin
(С)
Tmax
(С)
R
(мм)
R24
(мм)
S
(см)
12 11.10 Ю 2 16 км ясно +12.5 -2.2 36 +12 +12 прохладно 1026.2 1022.2
21 11.10 В 1 8000 м н/о +5.0 +1.1 76 +4 +4 очень
холодно
1027.0 1027.0
00 12.10 В 1 9000 м 8/8
[]
+7.7 +2.4 69 +7 +7 прохладно 1027.3 1023.3
03 12.10 В 1 16 км 9/9
[]
+15.3 +0.3 36 +16 +17 по сезону 1026.7 1027.0
09 12.10 Ю 2 8000 м 9/9
[]
+18.0 +0.2 30 +19 +19 тепло 1023.3 1023.0
12 12.10 Ю 1 6000 м мгла 9/9
[]
+12.2 +2.4 51 +13 +13 по сезону 1024.3 1020.3
21 12.10 С 1 3200 м мгла н/о +6.5 +3.7 82 +6 +6 холодно 1023.8 1024.0
03 13.10 В 3 6000 м мгла 9/9
[]
+15.4 +3.2 44 +15 +16 по сезону 1023.7 1024.0
06 13.10 Ю 2 4500 м мгла 9/9
[]
+19.2 +4.2 37 +20 +21 по сезону 1021.2 1017.3 +6.2
12 13.10 В 1 3500 м мгла 9/9
[]
+13.1 +6.5 64 +13 +13 по сезону 1020.8 1016.8
15 13.10 З 1 2100 м мгла н/о +10.0 +6.9 81 +10 +10 по сезону 1021.3 1021.0
21 13.10 В 1 1500 м дымка н/о +8.6 +6.9 89 +8 +8 прохладно 1020.8 1021.0
03 14.10 В 2 2000 м мгла 9/9
[]
+16.2 +7.2 55 +16 +17 по сезону 1021.5 1022.0
06 14.10 Ю 1 2100 м мгла 9/9
[]
+19.7 +6.8 43 +22 +22 комфорт 1020.2 1016.3 +7.7
12 14.10 Ю 1 2400 м мгла 9/9
[]
+14.8 +8.3 65 +15 +15 по сезону 1021.2 1017.3
15 14.10 В 1 1800 м мгла н/о +12.4 +8.5 77 +12 +12 по сезону 1022.1 1022.0
00 15.10 СВ 2 1500 м мгла 10/10 1500 м
[]
+13.5 +9.6 77 +13 +13 тепло 1021.9 1018.0 0.0
03 15.10 В 2 2100 м мгла 10/10 1500 м
[]
+16.1 +8.3 60 +16 +16 по сезону 1021.8 1022.0
06 15.10 В 2 2100 м слабый дождь 10/10 1500 м
[]
+16.6 +9.3 62 +17 +17 по сезону 1020.2 1016.3 +12.2 0.0
12 15.10 СВ 2 1300 м мгла н/о +12.6 +10.7 88 +12 +12 по сезону 1021.2 1017.3 4
15 15.10 СВ 2 1000 м мгла н/о +12.5 +10.7 89 +12 +12 по сезону 1021.3 1021.0
21 15.10 СВ 2 2600 м мгла н/о +12.5 +9.5 82 +12 +12 по сезону 1020.7 1021.0
00 16.10 С 2 3100 м в посл. час дождь 10/10 600 м
[]
+12.6 +9.2 80 +12 +12 по сезону 1021.9 1018.0 0.4
03 16.10 СВ 4 8000 м 9/9 1500 м
[]
+16.0 +6.7 54 +15 +16 по сезону 1022.3 1022.0
06 16.10 В 2 13 км 9/9
[]
+18.1 +3.9 39 +19 +19 по сезону 1020.4 1016.5 +11.8
12 16.10 Ю 2 3400 м мгла 8/8
[]
+12.5 +8.8 78 +12 +12 по сезону 1021.7 1017.8
15 16.10 С 1 2100 м дымка н/о +9.5 +7.8 89 +9 +9 по сезону 1022.8 1023.0
18 16.10 В 1 1600 м дымка н/о +8.7 +7.6 93 +8 +8 по сезону 1023.1 1019.2 +18.4
03 17.10 В 3 24 км 8/8 1000 м
[]
+15.0 -6.0 23 +15 +16 по сезону 1024.6 1025.0
06 17.10 С 2 30 км ясно +17.8 -8.3 16 +18 +25 по сезону 1022.1 1018.2 +6.9
12 17.10 Ю 1 19 км ясно +9.1 -1.0 49 +9 +9 прохладно 1023.6 1019.6
15 17.10 С 1 7000 м н/о +6.6 +2.5 75 +6 +6 холодно 1025.0 1025.0
18 17.10 штиль 0 н/о мгла н/о +4.9 +2.8 86 +4 +4 холодно 1026.2 1022.2 +18.3
21 17.10 СВ 1 10 км н/о +5.2 +1.7 78 +4 +4 холодно 1026.9 1027.0
00 18.10 СВ 1 13 км 3/3
[]
+8.4 +1.5 62 +8 +9 по сезону 1028.1 1024.1
06 18.10 З 1 8000 м 9/9
[]
+17.7 +2.1 35 +19 +20 тепло 1026.2 1022.2 +4.0
09 18.10 Ю 2 8000 м 9/9
[]
+16.4 +1.3 36 +17 +17 тепло 1025.9 1026.0

 

Местоположение метеостанции Beijing (Китай): широта 39.93 долгота 116.28 высота над уровнем моря 55 м.

В архиве по умолчанию представлена погода в Beijing за последнюю неделю. Архивные данные за месяц целиком и за предыдущие месяцы, начиная с января 2011 года, Вы можете получить, выбрав интересующий диапазон дат из раскрывающегося списка и нажав кнопку "Ввод!".


*Определитесь, кто Вы:
робот инопланетянин человек

Внимание! Время в таблицах - всемирное. Для получения местного времени необходимо прибавить поправку, которая в Beijing равна 8 ч.

Смотрите также архив погоды в соседних городах и на ближайших метеорологических станциях:

Погода в Huailai (Китай) (84 км)
Погода в Tianjin (Китай) (119 км)
Погода в Baoding (Китай) (135 км)
Погода в Fengning (Китай) (146 км)
Погода в Yu Xian (Китай) (147 км)
Погода в Zhangjiakou (Китай) (152 км)
Погода в Tangshan (Китай) (162 км)
Погода в Chengde (Китай) (183 км)
Погода в Potou (Китай) (207 км)
Погода в Leting (Китай) (231 км)

Пояснения к столбцам:

Ветер - указаны скорость ветра в м/с - средняя за 10 мин, порывы в срок и между сроками (в фигурных скобках) и направление, откуда дует ветер: С - северный, СВ - северо-восточный, В - восточный, ЮВ - юго-восточный, Ю - южный, ЮЗ - юго-западный, З - западный, СЗ - северо-западный.
Видимость - горизонтальная дальность видимости в метрах или километрах. При видимости от 1 до 10 км при отсутствии осадков обычно наблюдается дымка, при ухудшении видимости до 1 км и менее - туман. В сухую погоду видимость может ухудшаться дымом, пылью или мглою.
Явления - указаны атмосферные явления, наблюдавшиеся в срок или в последний час перед сроком; фигурными скобками обозначены явления, наблюдавшиеся между сроками (за 1-3 часа до срока); квадратными скобками обозначены град или гололедные отложения с указанием их диаметра в мм.
Облачность - указаны через наклонную черту общая и нижняя облачность в баллах и высота нижней границы облаков в метрах; квадратными скобками обозначены формы облаков: Ci - перистые, Cs - перисто-слоистые, Cc - перисто-кучевые, Ac - высококучевые, As - высокослоистые, Sc - слоисто-кучевые, Ns - слоисто-дождевые, Cu - кучевые, Cb - кучево-дождевые. Подробнее классификацию облаков см. в Атласе облаков (PDF).
T - Температура воздуха - температура, измеренная на высоте 2 м над землей.
Td - Температура точки росы - температура, при понижении до которой содержащийся в воздухе водяной пар достигнет насыщения.
f - Относительная влажность воздуха - влажноcть воздуха, измеренная на высоте 2 м над землей.
Te - Эффективная температура - температура, которую ощущает одетый по сезону человек в тени. Характеристика душности погоды. При расчете учитывается влияние влажности воздуха и скорости ветра на теплоощущения человека.
Tes - Эффективная температура на солнце - температура, которую ощущает человек, с поправкой на солнечный нагрев. Характеристика знойности погоды. Зависит от высоты солнца над горизонтом, облачности и скорости ветра. Ночью, в пасмурную погоду, а также при ветре 12 м/с и более поправка равна нулю.
P - Атмосферное давление - приведенное к уровню моря атмосферное давление.
Po - Атмосферное давление - измеренное на уровне метеостанции атмосферное давление.
Tmin - Минимальная температура - минимум температуры воздуха на высоте 2 м над землей.
Tmax - Максимальная температура - максимум температуры воздуха на высоте 2 м над землей.
R - Количество осадков - Количество выпавших осадков за период времени, мм. При наведении курсора мыши на число - период времени, за который выпало указанное количество осадков.
R24 - Количество осадков - Количество выпавших осадков за 24 часа, мм.
S - Снежный покров - Высота снежного покрова, см. При наведении курсора мыши на число - состояние снежного покрова и степень покрытия местности в баллах.